Retour au catalogue

STARLINK-34291

ActifCommunicationsVLEO
NORAD 64359·PAYLOAD·🇺🇸 United States

Lancé Jun 13, 2025 depuis Vandenberg Space Force Base

Loading…

Prochains Passages (prochaines 24 heures)

TLE

FraisSource: CelesTrak SupGP

Époque: Sep 14, 2026, 21:20 UTC

1 64359C 25126R   26257.88937500  .00068794  00000+0  23941-2 0  2576
2 64359  69.9998 275.9165 0003473 266.6583 308.3506 15.29530518    12

Suivez STARLINK-34291 en temps réel avec AllMySat

Download on the App Store